Regional Weather Roundup
Issued by NWS Austin/San Antonio, TX

Home | Current Version | Previous Version | Text Only | Print | Product List | Glossary On
Versions: 1 2 3 4 5 6 7 8 9 10 11 12 13 14 15 16 17 18 19 20 21 22 23 24 25 26 27 28 29 30 31 32 33 34 35 36 37 38 39 40 41 42 43 44 45 46 47 48 49 50
731
ASUS44 KEWX 132110
RWREWX
SOUTH TEXAS REGIONAL WEATHER ROUNDUP
NATIONAL WEATHER SERVICE AUSTIN/SAN ANTONIO TX
300 PM CST WED DEC 13 2017

NOTE: "FAIR" INDICATED FEW OR NO CLOUDS BELOW 12,000 FEET WITH NO
SIGNIFICANT WEATHER AND/OR OBSTRUCTIONS TO VISIBILITY.

* - THESE STATIONS ARE NOT NWS OR FAA STATIONS...AND ARE NOT SUBJECT
    TO NWS AND FAA QUALITY CONTROL.

TXZ171-172-183>190-132200-
TEXAS HILL COUNTRY AND EDWARDS PLATEAU

CITY           SKY/WX    TMP DP  RH WIND       PRES   REMARKS
JUNCTION       CLOUDY    64  30  27 S12G18    30.00F
*LLANO         CLOUDY    70  28  21 SW9       30.01F
BURNET         CLOUDY    63  35  35 S10       30.01F
*HORSESHOE BAY CLOUDY    66  32  28 SW6       30.00F
*KERRVILLE     CLOUDY    61  29  30 S8        30.05S
*FREDERICKSBRG CLOUDY    60  29  30 SW13      30.02F
*ROCKSPRINGS   NOT AVBL
*BOERNE STAGE  MOSUNNY   55  32  41 S9        30.06S
*CASTROVILLE   MOSUNNY   61  32  33 SW8       30.08S
HONDO          CLOUDY    63  33  32 SW8       30.07F
*UVALDE        CLOUDY    59  34  39 S6        30.08S
DEL RIO        CLOUDY    56  37  49 SE7       30.03F
LAUGHLIN AFB   CLOUDY    58  35  42 SE7       30.03F
CARRIZO SPRGS  PTSUNNY   61  36  39 S6        30.06F
*EAGLE PASS    CLEAR     59  36  41 S5        30.05F
$$

TXZ173-191>194-202-209-217>225-228-132200-
CENTRAL AND SOUTH CENTRAL TEXAS

CITY           SKY/WX    TMP DP  RH WIND       PRES   REMARKS
GEORGETOWN     CLOUDY    62  33  33 S13       30.01F
AUSTIN/BERGSTM CLOUDY    62  33  33 S14       30.02F
AUSTIN/MABRY   CLOUDY    62  33  33 SW9       30.02F
*AUSTIN/EXEC   CLOUDY    61  32  33 S12       30.02F
*LAGO VISTA    CLOUDY    62  32  33 SW10G16   30.01F
SAN MARCOS     CLOUDY    61  33  35 SW13      30.04F
NEW BRAUNFELS  MOSUNNY   60  33  36 SW9       30.03F
RANDOLPH AFB   MOSUNNY   59  33  37 SW10      30.05F
PT SAN ANTONIO MOSUNNY   61  33  35 SW9       30.05F
SAN ANTONIO    PTSUNNY   60  34  37 SW8       30.06F
STINSON FIELD  CLOUDY    62  33  33 SW9       30.05F
*LA GRANGE     CLOUDY    60  35  39 SW8       30.03F
*GIDDINGS      CLOUDY    58  32  37 SW9       30.04F
*GONZALES      CLOUDY    61  34  36 SW9       30.06F
$$

TXZ163>164-176>182-195>201-210>213-226-227-235-132200-
SOUTHEAST TEXAS

CITY           SKY/WX    TMP DP  RH WIND       PRES   REMARKS
COLLEGE STN    CLOUDY    59  34  39 S13       30.02F
*BRYAN         CLOUDY    58  33  39 S10       30.03F
*CALDWELL      CLOUDY    59  35  40 SW10      30.03F
*CROCKETT        N/A     59  32  36 S12       30.03F
*BRENHAM       CLOUDY    60  33  35 SW9       30.04F
HUNTSVILLE     CLOUDY    58  33  39 S10       30.02F
CONROE         CLOUDY    57  33  40 SW7       30.04F
HOUSTON BUSH   CLOUDY    58  31  35 SW5       30.06F
HOUSTON HOBBY  CLOUDY    58  31  35 S6        30.05F
*HOUSTON SW AP CLOUDY    58  32  38 CALM      30.07F
PEARLAND       CLOUDY    58  31  35 S5        30.07F
HOUSTON HOOKS  CLOUDY    59  33  37 SW7       30.05F
ELLINGTON FLD  PTSUNNY   57  34  41 S5        30.06F
SUGAR LAND     CLOUDY    59  33  37 SW8       30.06F
*HOUSTON EXEC  NOT AVBL
*CLEVELAND MUN CLOUDY    57  28  32 S5        30.05F
*WHARTON       PTSUNNY   58  31  35 S5        30.07F
*COLUMBUS      FAIR     N/A N/A N/A SW7       30.07F
*EAGLE LAKE    CLOUDY    59  35  41 SW6       30.06F
$$

TXZ214>216-236>238-132200-
THE UPPER TEXAS COAST

CITY           SKY/WX    TMP DP  RH WIND       PRES   REMARKS
*ORANGE        CLOUDY    59  38  46 SW7       30.07F
PORT ARTHUR    CLOUDY    59  38  45 SW9       30.06F
GALVESTON      MOSUNNY   62  42  47 SW12      30.07F
ANGLETON       PTSUNNY   61  31  32 SW6       30.07F
*BAY CITY      PTSUNNY   62  34  34 CALM      30.07F
PALACIOS       PTSUNNY   60  36  40 S6        30.08F
$$

TXZ229>234-239>247-132200-
TEXAS COASTAL BEND AND RIO GRANDE PLAINS

CITY           SKY/WX    TMP DP  RH WIND       PRES   REMARKS
VICTORIA       PTSUNNY   64  32  30 SW3       30.07F
*BEEVILLE      PTSUNNY   64  37  37 S9G16     30.06F
ROCKPORT       CLOUDY    62  43  49 SE6       30.08F
*PORT ARANSAS  NOT AVBL
*PORT LAVACA   PTSUNNY   62  37  40 SW8       30.08F
*INGLESIDE     CLOUDY    65  40  39 S6        30.08S
CORPUS CHRISTI CLOUDY    64  44  48 SW9       30.07F
CORPUS NAS     CLOUDY    67  39  35 S5        30.07F
*ROBSTOWN      CLOUDY    64  42  45 SW8       30.08F
ALICE          PTSUNNY   65  37  35 S9        30.06F
KINGSVILLE NAS CLOUDY    67  42  40 SW9       30.07F
COTULLA        PTSUNNY   63  35  35 W5        30.07F
*FAITH RANCH   SUNNY     61  41  48 S5        30.06F
LAREDO         SUNNY    N/A N/A N/A S12       30.10F
$$

TXZ248>255-132200-
DEEP SOUTH TEXAS

CITY           SKY/WX    TMP DP  RH WIND       PRES   REMARKS
BROWNSVILLE    CLOUDY    70  46  42 SE3       30.07F
PORT ISABEL    CLOUDY    67  47  48 E6        30.07F
*SOUTH PADRE   NOT AVBL
HARLINGEN      CLOUDY    66  45  46 E3        30.06F
*HEBBRONVILLE  MOSUNNY   64  29  26 S5        30.06F
MCALLEN        MOSUNNY   66  37  34 E3        30.07F
*WESLACO       CLOUDY    65  39  38 CALM      30.07F
FALFURRIAS     PTSUNNY   67  33  28 S7        30.07F
EDINBURG       CLOUDY    67  33  27 CALM      30.08F
*ZAPATA        CLOUDY    64  34  32 S7        30.06F
$$

TXZ213>215-236>238-242>244-246-247-251-254-255-132200-
CMAN STATIONS

STATION/POSITION TIME  TEMP    WIND        PRES    WAVE
                       AIR SEA DIR/SP/G            HT/PER
                 (UTC) (F)     (DEG/KT/KT) (MB)    (FT/S)
SABINE PASS      2048   58 58  220/  5/ 12 1019.5
SEA RIM ST PARK  2100   57     240/ 10/ 12 1018.5
NORTH JETTY/GLS  2042      59  240/  5/  8 1017.4
EAGLE POINT      2048   58 56  250/  6/  7 1018.0
MORGANS POINT    2048   58 57  240/  4/  7 1017.7
PORT O`CONNOR    2048   59 56  200/  7/  8 1018.2
MALAQUITE BEACH  2048   62 63  140/  5/  6 1018.1
BAFFIN BAY       2048   62 57  150/  6/  8 1018.6
PORT ISABEL      2048   64 57   20/  3/  4 1018.3
$$




USA.gov is the U.S. government's official web portal to all federal, state and local government web resources and services.